NL3D Weather Reports


time (UTC)temp
F
wind
direction
speed
knots
gust
knots
rain 1hr
in
rain 24hr
in
rain mn
in
humidity
%
barometer
mb
20260507105629 38 163 2.6 3.5 0.00 0.00 0.00 90 1018.2
20260507105125 38 167 2.6 3.5 0.00 0.00 0.00 91 1018.3
20260507104623 37 166 3.5 4.3 0.00 0.00 0.00 91 1018.3
20260507104119 37 132 2.6 3.5 0.00 0.00 0.00 92 1018.3
20260507103615 37 159 2.6 3.5 0.00 0.00 0.00 93 1018.4
20260507103112 36 162 2.6 2.6 0.00 0.00 0.00 94 1018.5
20260507102608 36 115 2.6 2.6 0.00 0.00 0.00 94 1018.2
20260507102105 36 125 2.6 3.5 0.00 0.00 0.00 94 1018.5
20260507101601 36 111 1.7 3.5 0.00 0.00 0.00 93 1018.5
20260507101056 36 93 1.7 2.6 0.00 0.00 0.00 93 1018.2
20260507100554 37 122 1.7 3.5 0.00 0.00 0.00 92 1018.2
20260507100052 37 137 0.9 3.5 0.00 0.00 0.00 92 1018.3
20260507095550 37 161 2.6 2.6 0.00 0.00 0.00 92 1018.2
20260507095046 37 154 2.6 2.6 0.00 0.00 0.00 93 1018.3
20260507094542 37 116 1.7 2.6 0.00 0.00 0.00 93 1018.1
20260507094039 37 144 2.6 2.6 0.00 0.00 0.00 94 1018.2
20260507093537 37 131 1.7 2.6 0.00 0.00 0.00 95 1018.1
20260507093036 37 94 1.7 2.6 0.00 0.00 0.00 94 1018.2
20260507092531 37 99 2.6 3.5 0.00 0.00 0.00 94 1018.1
20260507092028 37 109 2.6 2.6 0.00 0.00 0.00 94 1018.3
20260507091525 37 116 2.6 3.5 0.00 0.00 0.00 93 1018.3
20260507091021 38 135 1.7 2.6 0.00 0.00 0.00 92 1018.2
20260507090517 38 138 3.5 4.3 0.00 0.00 0.00 92 1018.3
20260507090014 38 144 2.6 4.3 0.00 0.00 0.00 92 1018.0
20260507085511 38 84 1.7 4.3 0.00 0.00 0.00 93 1017.8
20260507085008 38 171 2.6 6.1 0.00 0.00 0.00 93 1018.0
20260507084504 38 169 1.7 5.2 0.00 0.00 0.00 94 1017.8
20260507084002 38 156 3.5 4.3 0.00 0.00 0.00 94 1017.4
20260507083458 38 177 3.5 6.1 0.00 0.00 0.00 94 1017.5
20260507082954 38 198 1.7 3.5 0.00 0.00 0.00 94 1017.5
20260507082451 38 181 1.7 3.5 0.00 0.00 0.00 94 1017.3
20260507081947 38 172 1.7 4.3 0.00 0.00 0.00 94 1017.2
20260507081443 38 132 2.6 4.3 0.02 0.00 0.00 95 1017.6
20260507080940 38 140 2.6 4.3 0.02 0.00 0.00 95 1017.4
20260507080436 38 161 1.7 2.6 0.00 0.00 0.00 95 1017.6
20260507075932 38 155 3.5 4.3 0.00 0.28 0.28 95 1017.7
20260507075428 38 162 3.5 4.3 0.05 0.28 0.28 95 1017.5
20260507074925 38 164 1.7 3.5 0.05 0.27 0.27 95 1017.4
20260507074422 38 195 1.7 5.2 0.07 0.27 0.27 95 1017.4
20260507073920 38 156 3.5 4.3 0.07 0.26 0.26 95 1017.5
20260507073416 38 153 2.6 4.3 0.02 0.26 0.26 95 1017.5
20260507072913 38 172 2.6 3.5 0.02 0.25 0.25 95 1017.2
20260507072410 38 139 1.7 3.5 0.05 0.25 0.25 95 1017.2
20260507071908 38 164 1.7 3.5 0.05 0.25 0.25 95 1017.4
20260507071405 38 144 2.6 3.5 0.07 0.24 0.24 95 1017.3
20260507070901 38 162 1.7 2.6 0.05 0.24 0.24 94 1017.2
20260507070359 38 130 1.7 3.5 0.02 0.23 0.23 94 1017.1
20260507065855 38 144 1.7 3.5 0.02 0.23 0.23 94 1017.2
20260507065352 38 129 2.6 4.3 0.02 0.22 0.22 95 1017.2
20260507064849 38 154 2.6 3.5 0.07 0.22 0.22 95 1017.2
20260507064347 38 134 1.7 2.6 0.12 0.22 0.22 96 1017.0
20260507063845 39 147 1.7 3.5 0.09 0.21 0.21 96 1016.9
20260507063341 39 159 3.5 3.5 0.05 0.20 0.20 96 1017.1
20260507062838 39 180 1.7 3.5 0.05 0.20 0.20 96 1016.8
20260507062335 39 132 1.7 3.5 0.05 0.19 0.19 96 1016.8
20260507061833 39 120 1.7 2.6 0.02 0.19 0.19 96 1016.8
20260507061331 39 123 1.7 2.6 0.00 0.18 0.18 96 1016.7
20260507060829 39 103 1.7 1.7 0.02 0.18 0.18 96 1016.7
20260507060325 39 103 1.7 2.6 0.00 0.18 0.18 96 1016.9
20260507055822 39 96 1.7 2.6 0.00 0.18 0.18 96 1016.8
20260507055317 39 133 2.6 2.6 0.02 0.18 0.18 96 1016.7
20260507054814 39 145 1.7 1.7 0.05 0.18 0.18 96 1016.5
20260507054310 39 141 1.7 2.6 0.02 0.17 0.17 96 1016.2
20260507053808 39 121 2.6 2.6 0.05 0.17 0.17 96 1016.6
20260507053306 39 112 1.7 2.6 0.05 0.17 0.17 96 1016.3
20260507052805 39 138 2.6 3.5 0.05 0.17 0.17 96 1016.5
20260507052300 39 107 1.7 1.7 0.02 0.16 0.16 96 1016.4
20260507051759 39 96 1.7 2.6 0.02 0.16 0.16 95 1016.4
20260507051255 39 103 1.7 1.7 0.02 0.16 0.16 95 1016.5
20260507050752 39 92 1.7 1.7 0.00 0.15 0.15 95 1016.5
20260507050249 39 105 1.7 1.7 0.00 0.15 0.15 95 1016.4
20260507045746 39 122 1.7 1.7 0.00 0.15 0.15 95 1016.3
20260507045241 39 110 0.0 1.7 0.00 0.15 0.15 94 1016.3
20260507044739 39 115 0.0 2.6 0.02 0.15 0.15 93 1016.3
20260507044235 39 106 1.7 2.6 0.02 0.15 0.15 94 1016.3
20260507043731 39 63 3.5 4.3 0.02 0.15 0.15 94 1016.2
20260507043229 39 94 1.7 2.6 0.12 0.15 0.15 93 1016.5
20260507042725 39 97 1.7 3.5 0.14 0.14 0.14 93 1016.5
20260507042220 39 125 2.6 4.3 0.17 0.13 0.13 93 1016.4
20260507041718 40 158 2.6 3.5 0.12 0.11 0.11 92 1016.5
20260507041214 40 179 1.7 6.1 0.14 0.10 0.10 92 1016.4
20260507040711 40 156 3.5 4.3 0.14 0.07 0.07 91 1016.1
20260507040207 41 170 3.5 5.2 0.07 0.06 0.06 90 1016.1
20260507035703 41 160 2.6 6.1 0.02 0.05 0.05 88 1016.1
20260507035159 42 242 0.9 6.1 0.05 0.05 0.05 85 1015.9
20260507034656 42 200 2.6 4.3 0.02 0.04 0.04 87 1015.8
20260507034153 43 203 2.6 7.0 0.00 0.04 0.04 86 1015.7
20260507033652 43 153 1.7 2.6 0.00 0.04 0.04 89 1015.7
20260507033149 43 156 0.9 1.7 0.00 0.04 0.04 89 1015.4
20260507032646 44 126 0.0 1.7 0.02 0.04 0.04 85 1015.5
20260507032142 44 119 0.9 1.7 0.00 0.04 0.04 86 1015.2
20260507031639 44 128 1.7 1.7 0.00 0.04 0.04 84 1015.2
20260507031135 44 129 1.7 2.6 0.02 0.04 0.04 83 1015.4
20260507030632 43 111 1.7 2.6 0.05 0.04 0.04 87 1015.4
20260507030130 43 110 1.7 2.6 0.05 0.03 0.03 88 1015.2
20260507025627 43 141 1.7 2.6 0.02 0.02 0.02 85 1015.5
20260507025124 43 123 1.7 2.6 0.05 0.02 0.02 86 1015.3
20260507024622 44 144 2.6 2.6 0.05 0.02 0.02 82 1015.3
20260507024119 44 173 1.7 4.3 0.05 0.01 0.01 76 1015.0
20260507023614 45 160 1.7 2.6 0.05 0.01 0.01 77 1015.2
20260507023112 46 99 1.7 3.5 0.02 0.00 0.00 75 1015.2
20260507022609 46 174 2.6 2.6 0.00 0.00 0.00 69 1015.1
20260507022104 46 151 0.0 1.7 0.00 0.00 0.00 69 1015.0
20260507021601 46 131 1.7 2.6 0.00 0.00 0.00 72 1014.9
20260507021056 46 139 0.0 1.7 0.00 0.00 0.00 72 1015.0
20260507020555 46 113 1.7 3.5 0.00 0.00 0.00 70 1015.0
20260507020051 46 114 1.7 2.6 0.00 0.00 0.00 73 1015.0
20260507015550 45 115 0.0 1.7 0.00 0.00 0.00 74 1014.9
20260507015047 45 119 1.7 2.6 0.00 0.00 0.00 76 1014.9
20260507014543 45 124 0.9 1.7 0.00 0.00 0.00 75 1014.7
20260507014039 45 151 2.6 3.5 0.00 0.00 0.00 77 1014.9
20260507013536 45 108 0.9 1.7 0.00 0.00 0.00 79 1014.9
20260507013033 45 138 2.6 3.5 0.00 0.00 0.00 77 1014.9
20260507012530 45 154 0.9 3.5 0.00 0.00 0.00 77 1015.0
20260507012026 45 194 2.6 3.5 0.00 0.00 0.00 73 1014.9
20260507011524 45 142 1.7 2.6 0.00 0.00 0.00 73 1014.9
20260507011020 45 140 1.7 4.3 0.00 0.00 0.00 72 1014.9
20260507010514 46 108 1.7 3.5 0.00 0.00 0.00 71 1015.0
20260507010011 45 147 0.9 3.5 0.00 0.00 0.00 72 1014.8
20260507005509 45 184 1.7 3.5 0.00 0.00 0.00 74 1015.1
20260507005005 45 156 2.6 3.5 0.00 0.00 0.00 73 1014.8
20260507004502 45 150 0.9 3.5 0.00 0.00 0.00 72 1014.8
20260507003959 46 173 1.7 2.6 0.00 0.00 0.00 73 1014.9
20260507003454 46 112 0.0 3.5 0.00 0.00 0.00 72 1014.8
20260507002949 46 104 0.9 3.5 0.00 0.00 0.00 71 1014.9
20260507002447 46 163 1.7 3.5 0.00 0.00 0.00 71 1014.8
20260507001943 46 166 0.0 2.6 0.00 0.00 0.00 71 1014.6
20260507001440 46 135 2.6 3.5 0.00 0.00 0.00 72 1014.8
20260507000937 46 110 1.7 4.3 0.00 0.00 0.00 72 1014.7
20260507000435 46 169 0.0 2.6 0.00 0.00 0.00 71 1014.6
20260506235928 46 153 2.6 4.3 0.00 0.00 0.00 71 1014.5
20260506235426 47 165 0.9 3.5 0.00 0.00 0.00 69 1014.6
20260506234921 47 151 2.6 5.2 0.00 0.00 0.00 69 1014.7
20260506234420 47 311 0.0 3.5 0.00 0.00 0.00 69 1014.5
20260506233917 47 110 1.7 2.6 0.00 0.00 0.00 67 1014.6
20260506233413 47 152 2.6 3.5 0.00 0.00 0.00 67 1014.6
20260506232910 47 96 1.7 2.6 0.00 0.00 0.00 70 1014.4
20260506232406 47 224 0.0 2.6 0.00 0.00 0.00 71 1014.3
20260506231902 47 193 1.7 3.5 0.00 0.00 0.00 69 1014.5
20260506231400 47 171 1.7 5.2 0.00 0.00 0.00 68 1014.5
20260506230857 47 107 1.7 4.3 0.00 0.00 0.00 66 1014.4
20260506230354 48 160 1.7 2.6 0.00 0.00 0.00 66 1014.2
20260506225849 48 119 3.5 3.5 0.00 0.00 0.00 65 1014.2
20260506225347 47 168 4.3 6.1 0.00 0.00 0.00 64 1014.3
20260506224839 47 125 1.7 5.2 0.00 0.00 0.00 63 1014.4
20260506224336 46 206 2.6 4.3 0.00 0.00 0.00 65 1014.2
20260506223832 46 178 5.2 5.2 0.00 0.00 0.00 66 1014.1
20260506223327 46 163 4.3 4.3 0.00 0.00 0.00 65 1014.1
20260506222825 46 180 1.7 5.2 0.00 0.00 0.00 65 1014.1
20260506222320 45 303 0.9 4.3 0.00 0.00 0.00 66 1014.3
20260506221818 46 149 2.6 6.1 0.00 0.00 0.00 66 1014.1
20260506221315 46 181 3.5 3.5 0.00 0.00 0.00 65 1013.9
20260506220814 45 196 3.5 5.2 0.00 0.00 0.00 65 1014.1
20260506220313 46 204 4.3 6.1 0.00 0.00 0.00 62 1014.0
20260506215810 46 184 2.6 5.2 0.00 0.00 0.00 62 1014.0
20260506215306 49 228 3.5 5.2 0.00 0.00 0.00 60 1013.8
20260506214802 49 58 1.7 1.7 0.00 0.00 0.00 60 1013.6
20260506214259 49 109 0.0 2.6 0.00 0.00 0.00 60 1013.7
20260506213758 49 24 1.7 2.6 0.00 0.00 0.00 61 1013.7
20260506213254 49 36 1.7 3.5 0.00 0.00 0.00 60 1013.8
20260506212752 49 43 1.7 1.7 0.00 0.00 0.00 60 1013.6
20260506212247 49 46 2.6 2.6 0.00 0.00 0.00 61 1013.6
20260506211743 49 123 0.9 1.7 0.00 0.00 0.00 62 1013.7
20260506211239 49 154 0.0 2.6 0.00 0.00 0.00 62 1013.6
20260506210736 49 115 1.7 2.6 0.00 0.00 0.00 63 1013.6
20260506210233 49 77 0.9 3.5 0.00 0.00 0.00 61 1013.5
20260506205730 49 135 1.7 3.5 0.00 0.00 0.00 63 1013.4
20260506205226 48 113 1.7 3.5 0.00 0.00 0.00 63 1013.3
20260506204723 49 62 2.6 5.2 0.00 0.00 0.00 62 1013.3
20260506204220 48 51 0.9 2.6 0.00 0.00 0.00 64 1013.2
20260506203718 48 94 2.6 3.5 0.00 0.00 0.00 64 1013.2
20260506203215 48 43 2.6 5.2 0.00 0.00 0.00 64 1013.5
20260506202713 48 24 4.3 4.3 0.00 0.00 0.00 65 1013.3
20260506202209 49 16 2.6 2.6 0.00 0.00 0.00 63 1013.3
20260506201706 49 31 0.0 3.5 0.00 0.00 0.00 62 1013.2
20260506201203 49 99 0.0 3.5 0.00 0.00 0.00 64 1013.1
20260506200659 48 46 2.6 6.1 0.00 0.00 0.00 65 1013.2
20260506200156 49 21 4.3 5.2 0.00 0.00 0.00 63 1013.1
20260506195653 48 268 0.0 5.2 0.00 0.00 0.00 63 1013.0
20260506195149 47 63 3.5 3.5 0.00 0.00 0.00 66 1013.0
20260506194647 47 217 1.7 3.5 0.00 0.00 0.00 67 1013.3
20260506194142 47 22 4.3 4.3 0.00 0.00 0.00 66 1013.0
20260506193641 47 269 0.0 5.2 0.00 0.00 0.00 66 1012.9
20260506193137 48 128 0.9 2.6 0.00 0.00 0.00 65 1013.0
20260506192634 47 87 1.7 3.5 0.00 0.00 0.00 67 1012.9
20260506192130 46 1 2.6 4.3 0.00 0.00 0.00 67 1013.1
20260506191627 47 109 0.0 3.5 0.00 0.00 0.00 67 1013.1
20260506191123 47 164 0.0 3.5 0.00 0.00 0.00 66 1013.1
20260506190621 47 81 2.6 2.6 0.00 0.00 0.00 65 1013.0
20260506190118 46 86 1.7 3.5 0.00 0.00 0.00 64 1013.1
20260506185615 47 87 2.6 5.2 0.00 0.00 0.00 64 1012.8
20260506185110 46 85 1.7 2.6 0.00 0.00 0.00 66 1012.9
20260506184608 46 75 0.0 3.5 0.00 0.00 0.00 66 1013.0
20260506184106 45 35 1.7 1.7 0.00 0.00 0.00 68 1013.0
20260506183601 45 110 2.6 2.6 0.00 0.00 0.00 68 1012.9
20260506183058 44 119 1.7 3.5 0.00 0.00 0.00 69 1013.0
20260506182555 44 130 2.6 4.3 0.00 0.00 0.00 70 1012.8
20260506182052 44 147 2.6 2.6 0.00 0.00 0.00 69 1012.9
20260506181551 44 92 2.6 2.6 0.00 0.00 0.00 69 1012.8
20260506181047 44 178 0.0 3.5 0.00 0.00 0.00 71 1012.7
20260506180543 44 80 1.7 1.7 0.00 0.00 0.00 71 1012.7
20260506180040 44 55 0.9 1.7 0.00 0.00 0.00 70 1012.6
20260506175536 44 60 0.0 2.6 0.00 0.00 0.00 71 1012.6
20260506175033 44 42 1.7 5.2 0.00 0.00 0.00 71 1012.6
20260506174532 44 8 1.7 3.5 0.00 0.00 0.00 71 1012.7
20260506174027 44 80 0.9 3.5 0.00 0.00 0.00 72 1012.6
20260506173526 43 323 0.0 1.7 0.00 0.00 0.00 71 1012.7
20260506173022 44 26 0.9 2.6 0.00 0.00 0.00 71 1012.7
20260506172520 43 75 1.7 2.6 0.00 0.00 0.00 71 1012.5
20260506172015 43 69 2.6 3.5 0.00 0.00 0.00 72 1012.5
20260506171513 43 55 1.7 2.6 0.00 0.00 0.00 72 1012.5
20260506171011 42 70 1.7 2.6 0.00 0.00 0.00 73 1012.6
20260506170508 42 86 0.9 1.7 0.00 0.00 0.00 73 1012.5
20260506170006 42 87 1.7 1.7 0.00 0.00 0.00 73 1012.3
20260506165504 42 51 1.7 2.6 0.00 0.00 0.00 73 1012.4
20260506164959 42 81 1.7 2.6 0.00 0.00 0.00 73 1012.4
20260506164456 42 49 2.6 2.6 0.00 0.00 0.00 74 1012.5
20260506163954 42 96 1.7 1.7 0.00 0.00 0.00 74 1012.5
20260506163449 41 104 1.7 1.7 0.00 0.00 0.00 75 1012.1
20260506162944 41 112 1.7 2.6 0.00 0.00 0.00 76 1012.4
20260506162442 40 116 1.7 2.6 0.00 0.00 0.00 77 1012.2
20260506161939 40 146 1.7 2.6 0.00 0.00 0.00 77 1012.0
20260506161437 40 123 2.6 2.6 0.00 0.00 0.00 77 1012.1
20260506160934 40 124 1.7 2.6 0.00 0.00 0.00 77 1012.0
20260506160432 40 77 1.7 1.7 0.00 0.00 0.00 77 1012.1
20260506155929 39 135 1.7 2.6 0.00 0.00 0.00 78 1012.2
20260506155426 39 116 1.7 2.6 0.00 0.00 0.00 79 1012.0
20260506153548 38 99 1.7 2.6 0.00 0.00 0.00 81 1012.0
20260506153045 38 109 1.7 2.6 0.00 0.00 0.00 81 1012.0
20260506152542 38 89 1.7 2.6 0.00 0.00 0.00 81 1011.8
20260506152040 38 123 1.7 2.6 0.00 0.00 0.00 80 1012.0
20260506151538 38 123 1.7 2.6 0.00 0.00 0.00 80 1011.9
20260506151035 38 106 1.7 1.7 0.00 0.00 0.00 79 1011.9
20260506150531 39 83 1.7 2.6 0.00 0.00 0.00 80 1011.8
20260506150028 39 117 1.7 3.5 0.00 0.00 0.00 79 1011.7
20260506145525 39 38 0.9 1.7 0.00 0.00 0.00 78 1011.7
20260506145023 39 98 1.7 2.6 0.00 0.00 0.00 77 1011.5
20260506144519 39 96 1.7 2.6 0.00 0.00 0.00 76 1011.7
20260506144017 39 57 1.7 2.6 0.00 0.00 0.00 77 1011.7
20260506143514 39 57 1.7 2.6 0.00 0.00 0.00 77 1011.7
20260506143013 39 120 1.7 2.6 0.00 0.00 0.00 77 1011.6
20260506142510 39 68 1.7 3.5 0.00 0.00 0.00 77 1011.5
20260506142008 39 86 1.7 3.5 0.00 0.00 0.00 77 1011.6
20260506141505 39 97 0.0 3.5 0.00 0.00 0.00 77 1011.6
20260506141003 39 82 1.7 3.5 0.00 0.00 0.00 77 1011.5
20260506140500 38 41 1.7 3.5 0.00 0.00 0.00 78 1011.6
20260506135957 38 81 2.6 3.5 0.00 0.00 0.00 78 1011.6
20260506135454 38 77 1.7 2.6 0.00 0.00 0.00 80 1011.7
20260506134950 37 77 1.7 3.5 0.00 0.00 0.00 81 1011.5
20260506134446 37 107 1.7 1.7 0.00 0.00 0.00 81 1011.4
20260506133943 37 96 2.6 2.6 0.00 0.00 0.00 82 1011.6
20260506133440 37 100 1.7 2.6 0.00 0.00 0.00 81 1011.5
20260506132937 37 95 1.7 2.6 0.00 0.00 0.00 80 1011.5
20260506132434 37 87 1.7 2.6 0.00 0.00 0.00 80 1011.4
20260506131932 37 76 2.6 3.5 0.00 0.00 0.00 81 1011.5
20260506131428 37 82 1.7 2.6 0.00 0.00 0.00 82 1011.5
20260506130925 37 91 1.7 1.7 0.00 0.00 0.00 82 1011.2
20260506130421 37 118 1.7 2.6 0.00 0.00 0.00 82 1011.5
20260506125919 37 94 1.7 2.6 0.00 0.00 0.00 81 1011.6
20260506125418 37 103 2.6 2.6 0.00 0.00 0.00 81 1011.2
20260506124915 37 111 1.7 3.5 0.00 0.00 0.00 81 1011.3
20260506124413 38 124 1.7 2.6 0.00 0.00 0.00 80 1011.2
20260506123910 38 124 1.7 2.6 0.00 0.00 0.00 78 1011.2
20260506123408 39 89 0.9 2.6 0.00 0.00 0.00 75 1011.3
20260506122906 38 74 3.5 4.3 0.00 0.00 0.00 76 1011.3
20260506122402 37 71 2.6 3.5 0.00 0.00 0.00 80 1011.3
20260506121900 37 93 1.7 2.6 0.00 0.00 0.00 81 1011.2
20260506121357 37 106 1.7 2.6 0.00 0.00 0.00 81 1011.2
20260506120854 37 93 1.7 3.5 0.00 0.00 0.00 81 1011.2
20260506120352 37 113 2.6 2.6 0.00 0.00 0.00 81 1011.2
20260506115849 37 83 2.6 3.5 0.00 0.00 0.00 81 1011.0
20260506115347 37 92 1.7 1.7 0.00 0.00 0.00 80 1011.1
20260506114845 38 99 1.7 2.6 0.00 0.00 0.00 81 1011.3
20260506114342 38 91 1.7 3.5 0.00 0.00 0.00 79 1011.0
20260506113841 38 124 1.7 2.6 0.00 0.00 0.00 79 1011.2
20260506113338 38 78 1.7 2.6 0.00 0.00 0.00 78 1010.8
20260506112834 38 110 1.7 2.6 0.00 0.00 0.00 78 1011.1
20260506112331 38 96 2.6 2.6 0.00 0.00 0.00 78 1011.1
20260506111829 39 122 1.7 1.7 0.00 0.00 0.00 77 1011.1
20260506111327 39 85 1.7 2.6 0.00 0.00 0.00 77 1010.8
20260506110824 39 86 1.7 2.6 0.00 0.00 0.00 76 1011.2
20260506110321 39 130 0.9 1.7 0.00 0.00 0.00 76 1011.1